This demonstration page uses our WeatherBlox Daily Observations layout. Learn more.

Left ArrowRight Arrow

44.89941, -97.11507

Hourly Observations for April 14, 2019

Temp ( °F °C ) Dew Point ( °F °C ) Humidity (%) Winds ( mph kmh ) Pressure ( in mb ) Visibility ( mi km ) Precip ( " mm )
12:53 am 00:53 Clear 23 -5 20 -6.7 88 88 Calm 30.10 1019 10 16 0.00 0.00
1:15 am 01:15 Mostly Clear with Mist and Fog 21 -6.1 18 -7.8 88 88 Calm 30.14 1021 3 5 0.00 0.00
1:17 am 01:17 Mostly Clear with Mist and Fog 21 -6.1 18 -7.8 88 88 Calm 30.14 1021 1 2 0.00 0.00
1:19 am 01:19 Clear with Mist and Fog 21 -6.1 18 -7.8 88 88 NNE 3 6 30.14 1021 1 1 0.00 0.00
1:39 am 01:39 Clear with Mist and Fog 21 -6.1 19 -7.2 92 92 Calm 30.14 1021 2 2 0.00 0.00
1:44 am 01:44 Clear with Mist and Fog 22 -5.6 19 -7.2 89 89 Calm 30.13 1020 1 1 0.00 0.00
1:53 am 01:53 Clear with Mist and Fog 22 -5.6 19 -7.2 89 89 Calm 30.07 1018 2 2 0.00 0.00
1:58 am 01:58 Mostly Cloudy with Mist and Fog 22 -5.6 20 -6.7 92 92 Calm 30.13 1020 1 2 0.00 0.00
2:03 am 02:03 Mostly Cloudy with Freezing Fog 23 -5 20 -6.7 88 88 Calm 30.12 1020 0 0 0.00 0.00
2:17 am 02:17 Mostly Cloudy with Mist and Fog 23 -5 20 -6.7 88 88 Calm 30.12 1020 1 2 0.00 0.00
2:21 am 02:21 Mostly Clear with Mist and Fog 21 -6.1 20 -6.7 96 96 Calm 30.11 1020 2 2 0.00 0.00
2:38 am 02:38 Clear with Mist and Fog 22 -5.6 19 -7.2 89 89 Calm 30.11 1020 1 2 0.00 0.00
2:44 am 02:44 Clear with Mist and Fog 21 -6.1 19 -7.2 92 92 Calm 30.11 1020 2 3 0.00 0.00
2:53 am 02:53 Clear with Mist and Fog 20 -6.7 17 -8.3 89 89 Calm 30.05 1018 3 4 0.00 0.00
3:07 am 03:07 Mostly Cloudy with Mist and Fog 18 -7.8 15 -9.4 88 88 N 3 6 30.12 1020 1 1 0.00 0.00
3:16 am 03:16 Mostly Cloudy with Freezing Fog 18 -7.8 15 -9.4 88 88 ENE 3 6 30.11 1020 0 0 0.00 0.00
3:22 am 03:22 Mostly Cloudy with Mist and Fog 18 -7.8 16 -8.9 92 92 Calm 30.11 1020 1 2 0.00 0.00
3:24 am 03:24 Mostly Clear with Mist and Fog 18 -7.8 17 -8.3 96 96 Calm 30.11 1020 2 3 0.00 0.00
3:37 am 03:37 Clear with Mist and Fog 19 -7.2 15 -9.4 84 84 Calm 30.10 1019 3 5 0.00 0.00
3:53 am 03:53 Clear with Mist and Fog 20 -6.7 18 -7.8 92 92 Calm 30.04 1017 3 4 0.00 0.00
4:03 am 04:03 Clear with Mist and Fog 18 -7.8 17 -8.3 96 96 Calm 30.12 1020 1 2 0.00 0.00
4:10 am 04:10 Clear with Mist and Fog 18 -7.8 15 -9.4 88 88 S 3 6 30.12 1020 1 1 0.00 0.00
4:15 am 04:15 Clear with Mist and Fog 18 -7.8 16 -8.9 92 92 S 3 6 30.12 1020 2 3 0.00 0.00
4:17 am 04:17 Clear with Mist and Fog 18 -7.8 16 -8.9 92 92 Calm 30.12 1020 3 5 0.00 0.00
4:53 am 04:53 Clear with Mist and Fog 16 -8.9 13 -10.6 88 88 Calm 30.05 1018 6 10 0.00 0.00
5:13 am 05:13 Clear with Mist and Fog 15 -9.4 13 -10.6 91 91 Calm 30.12 1020 2 3 0.00 0.00
5:22 am 05:22 Clear with Mist and Fog 16 -8.9 14 -10 92 92 E 3 6 30.12 1020 1 2 0.00 0.00
5:27 am 05:27 Clear with Mist and Fog 16 -8.9 13 -10.6 88 88 E 3 6 30.12 1020 3 4 0.00 0.00
5:34 am 05:34 Clear 14 -10 11 -11.7 88 88 E 6 9 30.12 1020 9 14 0.00 0.00
5:53 am 05:53 Clear 15 -9.4 12 -11.1 88 88 S 5 7 30.04 1017 9 14 0.00 0.00
6:18 am 06:18 Clear with Mist and Fog 18 -7.8 16 -8.9 92 92 S 3 6 30.10 1019 1 2 0.00 0.00
6:20 am 06:20 Mostly Cloudy with Freezing Fog 17 -8.3 15 -9.4 92 92 S 3 6 30.10 1019 1 1 0.00 0.00
6:29 am 06:29 Mostly Cloudy with Freezing Fog 17 -8.3 15 -9.4 92 92 Calm 30.09 1019 0 0 0.00 0.00
6:41 am 06:41 Mostly Clear with Mist and Fog 18 -7.8 15 -9.4 88 88 ESE 3 6 30.09 1019 1 2 0.00 0.00
6:43 am 06:43 Mostly Clear with Mist and Fog 18 -7.8 15 -9.4 88 88 Calm 30.09 1019 3 5 0.00 0.00
6:53 am 06:53 Mostly Sunny 17 -8.3 13 -10.6 84 84 Calm 30.02 1017 7 11 0.00 0.00
7:53 am 07:53 Sunny 21 -6.1 17 -8.3 85 85 ESE 3 6 30.02 1017 10 16 0.00 0.00
8:53 am 08:53 Sunny 27 -2.8 20 -6.7 75 75 ESE 5 7 30.00 1016 10 16 0.00 0.00
9:53 am 09:53 Sunny 30 -1.1 21 -6.1 69 69 SE 9 15 29.97 1015 10 16 0.00 0.00
10:53 am 10:53 Sunny 31 -0.6 23 -5 72 72 SE 9 15 29.96 1015 10 16 0.00 0.00
11:53 am 11:53 Sunny 33 0.6 25 -3.9 72 72 SSE 12 19 29.95 1014 10 16 0.00 0.00
12:53 pm 12:53 Sunny 34 1.1 25 -3.9 70 70 SSE 14 22 29.92 1013 10 16 0.00 0.00
1:53 pm 13:53 Sunny 34 1.1 25 -3.9 70 70 SSE 13 20 29.91 1013 10 16 0.00 0.00
2:53 pm 14:53 Sunny 35 1.7 25 -3.9 67 67 SSE 13 20 29.90 1013 10 16 0.00 0.00
3:53 pm 15:53 Sunny 35 1.7 25 -3.9 67 67 SE 14 22 29.88 1012 10 16 0.00 0.00
4:53 pm 16:53 Sunny 35 1.7 26 -3.3 70 70 SE 12 19 29.87 1012 10 16 0.00 0.00
5:53 pm 17:53 Sunny 35 1.7 26 -3.3 70 70 SE 12 19 29.88 1012 10 16 0.00 0.00
6:53 pm 18:53 Sunny 35 1.7 26 -3.3 70 70 ESE 9 15 29.87 1012 10 16 0.00 0.00
7:53 pm 19:53 Sunny 33 0.6 26 -3.3 75 75 SE 9 15 29.86 1011 10 16 0.00 0.00
8:53 pm 20:53 Clear 31 -0.6 24 -4.4 76 76 ESE 8 13 29.85 1011 10 16 0.00 0.00
9:53 pm 21:53 Clear 30 -1.1 23 -5 75 75 SE 10 17 29.86 1011 10 16 0.00 0.00
10:53 pm 22:53 Clear 29 -1.7 23 -5 78 78 ESE 9 15 29.85 1011 10 16 0.00 0.00
11:53 pm 23:53 Clear 29 -1.7 23 -5 78 78 SE 9 15 29.83 1010 10 16 0.00 0.00

Powered by AerisWeather